Temp_Advection
nan nan nan nan nan nan nan nan nan nan nan nan nan nan nan nan nan nan nan nan nan nan nan nan nan nan nan nan nan nan nan nan nan nan nan nan nan nan nan nan nan nan nan nan nan nan nan nan nan nan nan nan
nan -0 0 -0 -1 -1 -1 -1 -0 -0 -0 -0 -0 0 0 0 0 0 0 0 0 -0 -0 -1 -1 -1 -1 -0 -0 -0 -0 -0 -0 0 1 0 0 0 0 0 -0 -0 -1 -1 -1 -0 -0 0 0 0 0 nan
nan 0 -0 -0 -0 -1 -1 -0 -0 0 -0 -0 -0 -0 -0 -0 0 0 0 0 0 -0 -0 -0 -0 -1 -1 -1 -1 -1 -0 -0 -0 1 1 0 -0 0 0 0 0 -0 -1 -1 -1 -0 -0 -0 0 0 0 nan
nan -0 -0 -0 -0 -0 -0 -0 0 0 0 0 -0 -0 -0 -0 -0 0 0 0 0 -0 -0 -0 -0 -0 -0 -1 -1 -1 -1 -0 0 0 1 0 -0 -0 0 0 0 -0 -0 -1 -1 -0 -0 -0 -0 0 0 nan
nan -1 -0 0 0 0 -0 0 0 0 0 0 -0 -0 0 -0 -0 0 0 0 0 -0 -0 -0 -0 -0 -0 -0 -1 -1 -1 -1 -0 0 0 0 -0 -0 -0 0 0 -0 -0 -0 -0 -0 -0 -0 -0 -0 0 nan
nan -0 0 0 0 -0 -0 0 0 0 0 0 0 0 0 -0 -0 -0 0 0 0 0 -0 -0 -0 -0 -0 -0 -0 -1 -1 -1 -0 -0 0 0 -0 -0 -0 0 0 0 -0 -0 -0 -0 -0 -0 -0 -0 0 nan
nan 1 0 0 0 0 0 0 0 0 0 -0 0 0 0 -0 -0 -0 -0 0 0 -0 -0 -0 -0 -0 -0 0 -0 -0 -0 -0 -0 -0 -0 -0 -0 -0 -0 -0 0 0 0 -0 -0 -0 -0 -0 -0 -0 0 nan
nan 1 0 0 0 0 -0 -0 -0 0 -0 -0 0 0 0 -0 -0 -0 0 0 -0 -0 -0 -0 -0 -0 0 0 0 -0 -0 -0 -0 -0 -0 -0 -0 -0 -0 0 0 0 0 -0 -0 -0 -0 -0 -0 -0 -0 nan
nan 1 0 0 0 -0 -0 -0 -0 0 -0 -0 0 0 0 0 -0 -0 0 0 -0 -0 -0 -0 -0 -0 -0 0 0 0 0 -0 -0 -0 -0 -0 -0 -0 -0 0 0 0 0 -0 -0 -0 -0 -0 -0 -0 -0 nan
nan 0 0 0 0 -0 -0 -0 -0 -0 -0 -0 0 0 -0 0 0 0 0 0 0 0 -0 -0 -0 -0 -0 -0 0 0 0 0 -0 -0 -0 -0 -0 -0 -0 0 0 -0 0 0 -0 -0 -0 -0 -0 -0 -0 nan
nan 1 1 0 0 -0 -0 -0 -0 -0 -0 0 0 0 0 -0 0 0 0 0 0 0 0 -0 -0 -0 -0 -0 0 0 0 -0 0 -0 -0 -0 0 -0 -0 0 0 -0 -0 0 0 0 -0 -0 -0 -0 -0 nan
nan 1 1 0 0 -0 -0 -0 -0 -0 -0 -0 0 0 0 -0 -0 0 0 0 0 0 0 0 0 0 0 -0 -0 0 -0 -0 0 -0 -0 -0 0 0 -0 0 0 0 0 0 0 0 0 -0 -0 -0 -0 nan
nan 0 0 0 0 -0 -1 -1 -0 -0 -0 -0 0 0 0 0 -0 0 0 0 0 0 0 0 0 0 0 0 -0 0 0 -0 -0 0 -0 -0 0 0 0 0 0 0 0 0 -0 0 0 -0 -0 -0 -0 nan
nan 0 0 1 1 -0 -1 -1 -0 -0 -0 0 0 0 0 0 -0 0 0 0 0 0 0 0 0 0 0 0 -0 0 0 -0 -0 0 0 0 0 0 0 0 0 0 0 0 -0 -0 0 0 -0 -0 -0 nan
nan 0 1 1 1 -0 -1 -1 -0 -0 -0 0 0 0 0 0 0 0 0 0 0 0 0 0 0 0 0 0 0 0 0 0 -0 0 0 0 0 0 0 0 -0 -0 0 0 0 0 0 0 0 -0 -0 nan
nan 0 0 1 0 -0 -0 -0 -0 -0 -0 0 0 0 0 0 0 0 0 0 0 0 0 0 0 0 0 0 0 0 0 0 0 -0 0 0 0 0 0 0 -0 -0 0 0 0 0 0 0 0 0 -0 nan
nan 0 0 1 0 -1 -0 -0 -0 -0 0 0 0 0 0 0 0 0 0 0 0 0 0 0 0 0 0 0 0 0 0 0 0 0 0 0 0 0 0 0 0 0 0 0 0 0 0 0 0 0 0 nan
nan 0 0 0 -0 -0 -0 -0 -0 -0 -0 0 0 0 0 0 0 0 0 0 0 0 0 0 0 0 0 0 0 0 0 0 0 0 0 0 0 0 0 0 0 0 0 0 0 0 0 0 0 0 0 nan
nan 1 0 0 -0 -0 0 -0 -0 -0 -0 0 0 0 0 0 0 0 0 0 0 0 0 0 0 0 0 0 0 0 0 0 0 0 0 0 0 0 0 0 0 0 0 0 0 0 0 0 0 0 0 nan
nan 0 0 -0 0 0 0 -0 -0 -0 0 0 0 0 0 0 0 0 0 0 0 0 0 0 0 0 0 0 0 0 0 0 0 0 0 0 0 0 0 0 0 0 0 0 0 0 0 0 0 0 0 nan
nan -0 -0 0 1 0 0 -0 -0 -0 0 0 0 0 0 0 0 0 0 0 0 0 0 0 0 0 0 0 0 0 0 0 0 0 0 0 0 0 0 0 0 0 0 0 0 0 0 0 0 0 0 nan
nan 0 0 1 1 1 0 -0 -0 -0 -0 0 0 0 0 0 0 0 0 0 0 0 0 0 0 0 0 0 0 0 0 0 0 0 0 0 0 0 0 0 0 0 0 0 0 0 0 0 0 0 0 nan
nan 0 1 1 1 1 0 -1 -1 -0 -0 0 0 0 0 0 0 0 0 0 0 0 0 0 0 0 0 0 0 0 0 -0 -0 -0 0 0 0 0 0 0 0 0 0 0 0 0 0 0 0 0 0 nan
nan 0 1 1 1 1 -0 -1 -1 -0 -0 0 0 0 0 0 0 0 0 0 0 0 0 0 0 0 0 0 0 0 0 0 0 0 0 0 0 0 0 0 -0 0 0 0 0 0 0 0 0 0 0 nan
nan 0 0 0 0 0 -0 -1 -1 -0 -0 0 0 1 0 0 0 0 0 0 0 0 0 0 0 0 0 0 0 0 0 1 1 1 0 0 0 0 0 0 0 0 0 0 0 0 0 0 0 -0 -0 nan
nan 0 0 0 0 0 0 -0 -0 0 0 0 1 1 0 0 0 0 0 0 0 0 0 0 0 0 0 0 0 0 0 0 0 0 0 0 0 0 0 0 0 0 -0 0 0 0 0 0 -0 -0 -0 nan
nan 1 1 1 0 1 1 1 1 1 0 -0 0 0 0 -0 0 0 0 0 0 0 0 1 1 1 1 0 0 0 0 0 -0 -0 -0 -0 0 0 0 0 0 -0 0 0 0 0 0 -0 -0 -0 -0 nan
nan 0 1 1 1 1 1 1 1 0 -1 -1 -1 -0 -0 0 0 0 0 0 -0 0 1 1 1 1 1 0 0 0 0 0 -0 -0 0 0 0 0 0 0 -0 0 0 0 0 0 0 -0 -0 -0 -0 nan
nan 0 0 0 1 1 1 0 -1 -2 -2 -1 -1 -1 0 1 1 0 0 -0 0 0 1 1 1 1 1 0 0 0 0 0 0 0 0 0 0 0 0 0 0 0 0 0 0 0 -0 -0 -0 -0 -0 nan
nan -0 -0 -0 0 0 -0 -1 -3 -3 -1 1 1 1 1 1 1 0 0 -0 0 1 1 1 1 1 1 0 0 0 0 0 0 0 0 1 1 1 1 1 0 0 0 0 0 -0 -0 -0 -0 0 0 nan
nan nan nan nan nan nan nan nan nan nan nan nan nan nan nan nan nan nan nan nan nan nan nan nan nan nan nan nan nan nan nan nan nan nan nan nan nan nan nan nan nan nan nan nan nan nan nan nan nan nan nan nan
Wind_Speed
23 22 20 15 14 13 13 13 12 10 7 4 2 2 2 3 4 5 5 4 2 4 7 9 10 11 11 12 12 13 13 13 13 12 11 14 14 14 14 14 14 15 16 19 21 20 19 18 18 17 16 16
23 22 19 13 12 13 13 12 10 8 6 4 2 1 3 3 4 6 6 4 2 3 6 8 9 9 11 12 12 13 13 13 13 12 11 14 14 13 13 13 13 15 17 19 19 19 18 17 17 16 15 15
23 20 18 12 10 11 12 11 9 7 5 3 1 2 3 4 5 7 6 3 1 2 4 6 7 8 9 10 11 12 13 13 12 12 11 13 13 12 12 12 13 14 16 17 17 16 16 15 15 15 15 15
23 20 16 11 9 9 9 10 8 7 4 2 1 2 3 4 6 8 6 3 1 2 3 3 5 7 8 8 10 11 12 12 11 11 10 12 12 12 12 12 12 14 15 15 15 14 13 13 13 13 14 14
24 20 14 9 8 8 8 9 8 7 4 2 1 3 3 4 6 8 6 3 1 1 2 2 4 5 6 7 9 10 11 11 11 10 10 11 11 11 11 11 11 13 14 14 14 13 12 12 11 11 11 12
23 18 13 9 7 6 7 8 8 7 5 3 1 3 3 4 6 7 5 3 1 1 1 2 3 4 5 6 6 8 8 9 9 9 9 10 11 11 11 11 10 11 13 14 13 13 12 11 10 10 10 9
22 17 12 9 7 5 6 7 8 8 6 4 2 3 3 4 6 6 4 2 1 1 1 1 2 3 3 4 4 5 7 7 7 7 8 9 10 11 12 11 10 11 12 13 13 12 12 12 11 10 9 8
22 17 12 10 8 6 6 8 9 9 7 5 2 3 3 4 5 5 4 2 1 1 1 1 2 2 3 3 4 5 6 7 7 7 8 9 10 11 11 10 10 10 11 11 12 12 12 11 11 11 10 9
22 18 13 12 10 9 8 9 10 10 8 6 3 3 3 3 4 4 3 2 0 1 0 1 1 2 3 3 4 5 7 7 7 7 8 8 9 10 10 10 10 10 10 11 11 11 11 11 11 11 11 10
23 19 15 14 12 11 11 10 11 11 9 7 4 3 3 3 3 3 2 1 1 1 1 2 1 2 3 4 5 6 7 7 7 7 8 8 9 10 10 10 10 10 10 10 11 11 11 11 11 10 10 9
24 21 18 16 15 14 12 11 13 13 10 7 4 4 3 2 3 2 2 2 2 2 2 3 3 3 4 5 5 6 6 7 6 7 8 8 9 9 9 9 9 10 10 10 10 10 10 10 10 9 9 9
24 23 21 19 17 16 14 13 13 14 11 8 6 4 3 2 2 2 2 3 3 3 3 3 4 4 5 6 6 6 7 7 6 7 8 8 8 9 9 9 9 9 9 9 10 9 9 10 9 8 8 8
25 24 23 21 19 18 16 15 15 15 13 9 7 5 4 3 2 2 2 3 4 4 4 4 4 5 6 6 6 7 6 7 7 6 8 8 9 9 9 9 9 9 9 10 10 10 9 9 8 8 7 7
26 26 24 22 21 19 18 16 16 16 14 11 8 6 5 4 3 2 3 4 5 5 5 5 5 6 6 7 7 7 7 7 8 7 7 8 9 9 9 9 9 9 9 10 10 9 8 8 7 6 6 6
26 26 25 24 22 21 20 18 17 18 16 12 9 7 6 5 4 4 4 5 5 6 6 6 6 6 7 7 8 8 8 8 8 9 9 9 10 9 9 9 9 9 9 9 9 8 7 6 6 5 5 4
27 27 26 25 23 22 21 20 18 19 17 14 10 8 7 6 5 5 5 6 6 6 6 6 6 6 7 7 8 8 9 9 9 10 10 10 11 10 10 10 10 10 9 9 8 7 6 5 5 4 3 3
27 27 27 26 25 24 24 21 19 20 19 15 12 10 8 7 7 6 6 7 7 7 7 6 6 6 7 8 8 9 9 10 10 10 11 11 11 11 11 10 10 10 9 9 8 7 6 4 4 3 2 2
28 27 27 26 25 25 25 22 21 21 20 17 14 11 9 8 8 8 8 8 8 8 7 7 7 7 7 8 9 9 10 10 11 11 12 12 12 12 11 11 10 9 9 8 7 6 5 4 3 2 1 1
30 29 27 26 26 26 26 23 22 22 22 19 16 13 11 10 9 9 9 9 10 9 8 8 8 8 8 9 10 10 11 11 12 12 12 12 12 12 12 11 11 10 9 8 7 5 4 3 2 1 1 1
32 32 30 28 27 28 27 25 23 23 23 20 18 15 13 11 11 11 10 11 11 10 10 10 10 10 10 10 11 11 12 12 13 13 14 13 13 12 12 12 11 10 9 8 7 5 4 3 3 2 2 2
31 33 33 30 29 30 29 27 24 24 24 22 20 17 14 13 12 12 12 12 12 12 11 11 11 11 11 11 12 13 13 14 14 14 14 14 14 13 12 12 12 11 10 9 7 6 5 4 4 3 3 3
32 33 33 32 32 32 31 30 27 25 25 24 22 19 16 14 13 13 13 13 14 14 13 13 13 13 13 13 14 14 15 15 15 16 16 15 15 15 14 13 12 12 11 10 8 7 6 5 5 4 4 5
33 33 34 33 34 34 34 34 31 28 27 26 23 21 18 16 15 14 14 15 15 15 15 15 15 15 15 15 15 16 16 17 17 17 17 17 16 16 16 15 14 13 12 11 10 8 8 7 6 6 5 6
35 35 35 35 35 36 36 36 34 30 28 27 25 23 21 18 17 16 16 16 16 16 16 16 16 16 16 16 17 17 17 17 17 17 17 17 17 17 17 16 16 15 13 12 11 10 9 8 8 7 7 7
35 34 35 35 36 37 38 37 35 32 29 28 27 25 23 21 19 18 17 17 18 18 17 18 18 18 18 18 18 18 18 17 18 18 18 18 18 18 18 18 17 16 15 14 13 11 11 10 10 9 9 9
34 33 33 34 35 37 38 37 35 32 29 28 28 27 25 23 21 20 19 19 19 19 19 19 19 20 20 19 19 19 20 20 20 20 21 20 20 20 19 19 18 17 17 15 14 12 11 11 11 12 12 11
34 33 32 32 34 36 36 36 35 32 29 28 28 28 27 26 24 23 21 20 20 20 20 20 20 21 21 21 21 21 22 22 23 23 22 22 21 21 21 20 20 19 18 16 14 13 12 12 12 12 12 12
35 34 33 32 33 35 36 36 35 33 31 30 30 30 30 29 27 25 23 22 21 21 22 22 22 22 22 22 23 23 23 23 23 23 23 23 23 22 22 22 21 20 19 17 16 14 13 13 12 11 10 10
37 37 35 33 33 35 38 38 38 37 36 34 32 32 32 31 29 27 25 23 23 23 23 23 23 23 24 24 24 24 24 24 23 23 23 23 23 23 22 21 21 20 19 19 18 16 14 12 11 10 9 9
39 39 37 36 35 35 37 39 40 40 39 36 31 29 30 30 30 29 27 26 25 25 25 25 25 25 25 25 25 25 25 25 25 25 24 24 24 23 23 22 21 21 20 19 19 19 18 15 12 11 10 9
41 41 40 38 37 36 36 37 38 38 39 37 31 28 28 29 31 31 29 28 27 26 26 26 26 26 27 27 26 27 27 27 26 26 25 25 24 24 24 24 23 22 21 20 20 20 19 18 17 15 13 12
Wind_Direction
188 197 201 191 176 169 164 162 164 165 164 162 131 88 17 356 343 350 359 348 11 82 106 110 112 111 108 108 105 106 106 106 105 103 104 108 113 115 117 115 111 112 119 131 136 141 145 147 148 148 148 141
199 200 205 198 178 176 175 172 173 171 167 165 140 47 1 345 345 353 354 338 334 91 108 113 117 116 113 111 109 109 109 108 108 107 107 110 115 116 115 113 111 114 123 132 137 143 147 150 151 151 151 143
202 199 207 209 192 189 185 180 180 179 181 181 104 23 352 345 358 355 349 332 308 92 106 114 117 120 120 118 114 113 112 113 111 111 111 111 114 113 112 111 114 118 122 129 135 142 147 150 154 155 154 145
202 199 208 213 203 202 196 189 189 191 200 205 53 6 343 358 3 354 347 332 322 76 94 111 118 122 121 123 122 119 117 117 116 117 113 111 114 114 116 116 116 117 118 124 130 136 142 148 153 156 157 150
201 201 210 217 215 215 211 203 201 201 209 227 359 341 341 14 3 351 348 339 352 62 96 109 121 125 123 123 125 129 128 124 122 120 114 111 115 114 114 115 116 119 119 122 126 131 136 142 150 156 158 157
202 204 216 227 227 229 227 215 209 207 214 227 304 326 341 16 1 350 347 345 357 35 114 118 128 129 129 127 126 133 134 130 127 122 118 116 119 117 113 113 114 119 121 124 127 129 131 135 143 151 155 161
205 210 226 236 237 247 239 220 213 209 217 229 275 315 342 13 359 350 348 356 3 6 50 79 112 120 119 118 123 128 129 132 133 127 124 123 122 121 118 118 120 121 123 126 128 128 129 131 134 135 140 152
207 215 230 239 242 256 245 226 219 213 221 233 263 305 339 5 358 351 343 360 17 28 32 49 86 103 97 100 111 117 124 128 130 128 127 125 123 119 118 123 126 127 129 130 130 130 130 131 129 126 125 127
208 217 232 239 242 256 254 238 226 218 224 234 259 296 329 353 358 351 333 340 62 132 109 117 101 122 120 119 121 119 122 123 127 130 130 128 126 125 125 131 134 134 137 136 134 135 136 136 133 129 125 120
211 220 235 243 245 255 259 250 232 223 227 233 254 282 311 342 357 349 320 287 201 170 173 171 158 155 147 142 135 128 126 126 133 135 135 134 134 135 137 143 144 142 143 142 142 142 141 138 134 131 124 117
217 224 237 245 249 254 259 256 238 227 227 232 248 271 290 322 350 345 287 240 203 187 183 183 182 168 160 156 144 136 133 132 138 139 141 143 145 147 147 153 153 149 150 147 147 147 143 138 133 128 119 111
222 229 237 245 248 251 258 257 241 229 228 231 243 262 278 291 328 324 255 221 202 197 191 188 186 175 168 162 151 146 143 139 141 145 149 153 158 159 158 162 161 158 157 153 151 150 145 139 133 126 118 109
224 229 235 243 247 249 257 258 243 230 228 230 239 256 267 272 292 287 239 216 204 201 197 194 188 179 173 167 158 155 153 146 147 153 160 165 170 170 169 169 169 167 165 162 157 153 150 143 136 128 119 111
227 230 233 241 245 248 255 258 246 232 228 228 234 251 260 261 266 259 234 217 208 203 199 197 192 182 177 173 166 161 159 155 155 163 170 175 179 180 177 175 175 173 172 170 162 157 154 147 141 131 122 112
230 232 236 240 244 247 253 257 247 233 229 228 231 243 254 255 254 249 236 221 212 207 201 197 195 187 180 177 171 165 165 165 165 170 178 184 186 187 185 184 182 178 178 176 167 161 156 151 145 134 122 108
230 233 237 239 242 247 252 257 249 234 229 228 229 238 247 250 248 243 236 227 218 210 204 201 198 192 185 180 176 171 170 174 175 176 184 189 190 191 192 193 191 184 181 179 174 166 161 159 150 137 124 106
231 234 237 239 242 246 251 255 249 235 229 229 229 234 240 244 244 239 233 229 223 213 207 204 201 199 192 185 182 180 178 180 183 185 189 193 194 195 196 197 198 193 185 181 181 174 169 167 157 146 127 102
232 234 237 239 242 246 250 253 249 235 228 229 228 232 237 240 241 237 233 229 225 218 210 207 204 204 199 194 191 187 187 187 188 190 193 197 197 198 199 199 200 198 190 186 186 183 180 180 173 161 131 74
233 235 239 240 242 247 249 251 248 235 229 229 229 232 234 237 239 236 233 229 227 220 213 210 207 206 203 201 198 193 193 193 193 195 197 200 201 203 202 201 201 199 194 191 193 193 194 197 193 201 226 335
235 238 240 239 243 247 248 250 247 236 230 228 229 231 232 235 237 235 233 230 228 223 215 210 209 209 207 205 203 200 198 197 198 199 199 200 203 207 207 204 202 200 197 194 198 201 202 210 213 232 258 286
235 237 237 238 243 246 245 246 244 237 231 229 229 230 231 233 235 236 233 231 230 225 218 212 211 211 209 207 206 204 202 202 202 202 204 203 202 205 209 209 205 202 201 198 202 206 208 216 222 237 252 270
236 236 237 240 242 243 243 242 242 237 232 230 229 230 231 231 234 236 234 232 231 227 221 215 212 212 211 209 208 207 206 205 205 204 206 207 207 205 205 209 208 206 205 204 207 212 217 224 231 243 252 264
235 236 238 240 240 239 241 241 241 237 234 231 229 230 231 231 232 234 234 234 232 229 226 220 216 214 213 211 210 210 208 209 209 208 208 208 210 210 207 207 208 208 208 209 213 217 223 231 237 247 255 264
236 237 238 239 238 239 240 241 242 239 236 233 231 230 231 231 232 233 233 234 233 232 228 225 221 218 216 213 212 213 213 214 215 215 214 212 211 213 213 210 208 209 210 212 217 222 228 233 240 248 255 261
240 240 240 240 238 239 239 242 244 243 240 236 232 231 232 232 232 232 233 233 234 233 230 228 224 222 220 217 215 214 215 217 218 217 217 216 214 213 216 217 214 212 213 215 220 225 231 238 245 250 254 259
243 244 245 244 241 240 241 243 246 248 247 242 237 234 233 235 234 233 233 232 233 233 232 231 228 226 223 221 218 215 213 214 216 218 218 218 217 215 215 218 219 217 217 219 223 228 236 242 248 251 253 257
243 244 246 245 242 240 241 244 247 250 250 246 241 237 235 236 236 235 233 232 232 233 233 232 231 229 227 225 222 217 216 214 215 218 220 221 221 220 218 216 218 220 222 223 224 228 236 242 249 253 253 254
242 242 243 244 242 239 239 243 246 248 249 246 241 237 236 236 237 237 236 233 233 233 233 232 231 230 229 228 226 222 220 219 220 221 222 223 222 223 222 220 219 220 222 224 224 226 232 238 246 253 253 252
242 241 241 242 241 238 237 239 242 245 246 244 241 238 237 236 237 239 239 237 235 233 233 232 231 230 230 230 228 226 223 222 224 226 226 226 225 226 226 225 224 224 224 226 226 227 229 232 239 247 249 253
242 242 242 242 242 242 241 241 244 247 249 248 247 246 244 241 240 240 240 239 237 234 233 232 231 230 230 230 230 229 227 224 224 226 228 228 228 228 227 227 226 226 227 229 230 232 234 237 240 247 252 256
242 243 243 244 245 247 248 249 252 254 254 252 250 251 249 246 243 242 242 242 241 238 235 233 231 230 230 230 230 230 229 226 224 225 227 229 229 228 228 227 227 227 227 229 232 233 237 240 243 249 253 254
Height
1518 1519 1520 1521 1522 1522 1523 1523 1524 1525 1526 1526 1527 1527 1527 1528 1527 1527 1527 1527 1526 1526 1527 1527 1527 1527 1528 1528 1528 1529 1529 1529 1529 1528 1528 1528 1529 1529 1529 1529 1529 1530 1530 1531 1532 1533 1535 1536 1536 1537 1538 1538
1517 1519 1520 1520 1521 1522 1522 1523 1524 1524 1526 1526 1527 1527 1527 1528 1527 1527 1527 1526 1526 1526 1526 1526 1526 1527 1527 1528 1528 1529 1529 1529 1529 1529 1528 1528 1529 1529 1529 1529 1529 1530 1530 1531 1533 1534 1535 1536 1537 1538 1538 1539
1517 1519 1520 1520 1521 1521 1522 1523 1523 1524 1525 1526 1526 1526 1527 1527 1527 1527 1526 1526 1526 1525 1525 1526 1526 1526 1527 1527 1528 1529 1529 1529 1529 1528 1528 1528 1529 1529 1529 1529 1530 1530 1531 1532 1533 1535 1536 1537 1538 1538 1539 1539
1516 1518 1519 1520 1521 1521 1522 1523 1523 1524 1525 1526 1526 1526 1527 1526 1526 1526 1526 1526 1525 1525 1525 1525 1526 1526 1526 1527 1527 1528 1529 1529 1528 1528 1528 1528 1529 1529 1530 1530 1531 1531 1532 1533 1534 1535 1536 1537 1538 1539 1539 1539
1516 1517 1519 1520 1520 1521 1522 1523 1523 1524 1525 1525 1525 1526 1526 1526 1526 1526 1526 1526 1525 1525 1525 1525 1525 1526 1526 1526 1527 1527 1528 1528 1528 1528 1528 1529 1529 1530 1530 1531 1531 1532 1533 1534 1535 1536 1537 1538 1539 1539 1540 1540
1515 1517 1518 1519 1520 1521 1522 1522 1523 1524 1525 1525 1525 1526 1526 1525 1525 1525 1525 1525 1525 1524 1525 1525 1525 1526 1526 1526 1526 1527 1527 1527 1528 1528 1529 1529 1530 1530 1531 1532 1532 1533 1533 1534 1535 1536 1537 1538 1539 1539 1540 1540
1515 1517 1518 1519 1519 1520 1521 1522 1523 1524 1524 1525 1525 1525 1525 1525 1525 1525 1525 1525 1524 1524 1525 1525 1525 1525 1526 1526 1527 1527 1527 1527 1528 1529 1529 1530 1531 1531 1532 1533 1534 1534 1535 1535 1536 1537 1537 1538 1539 1539 1540 1541
1515 1516 1517 1518 1519 1520 1521 1522 1523 1523 1524 1524 1524 1525 1525 1524 1525 1524 1524 1524 1524 1525 1525 1525 1525 1525 1526 1526 1527 1527 1527 1528 1529 1529 1530 1531 1531 1532 1532 1533 1534 1535 1536 1536 1537 1537 1538 1539 1539 1540 1540 1541
1514 1516 1517 1518 1518 1519 1520 1521 1522 1523 1523 1524 1524 1524 1524 1524 1524 1524 1524 1524 1524 1525 1525 1525 1525 1525 1526 1526 1527 1527 1528 1528 1529 1530 1531 1531 1532 1532 1533 1534 1535 1536 1537 1537 1537 1538 1539 1539 1539 1540 1540 1541
1514 1515 1516 1517 1518 1519 1520 1521 1522 1522 1523 1523 1523 1524 1524 1524 1524 1524 1524 1524 1524 1524 1524 1525 1525 1525 1526 1526 1527 1527 1528 1529 1529 1530 1531 1532 1533 1533 1534 1535 1536 1537 1537 1538 1538 1538 1539 1539 1539 1540 1540 1540
1513 1514 1515 1517 1518 1518 1519 1520 1521 1522 1522 1522 1522 1523 1523 1523 1523 1523 1523 1524 1524 1524 1524 1524 1525 1525 1526 1526 1527 1527 1528 1529 1530 1531 1531 1532 1533 1534 1535 1536 1537 1537 1538 1538 1538 1539 1539 1539 1539 1540 1540 1540
1512 1513 1515 1516 1517 1518 1518 1519 1520 1521 1522 1522 1522 1522 1523 1523 1523 1523 1523 1523 1523 1523 1524 1524 1525 1525 1525 1526 1526 1527 1528 1528 1529 1530 1531 1533 1534 1535 1536 1536 1537 1537 1538 1538 1539 1539 1539 1539 1540 1540 1540 1540
1511 1512 1514 1515 1516 1517 1518 1518 1519 1520 1521 1521 1521 1522 1522 1522 1522 1522 1523 1523 1523 1523 1523 1524 1524 1525 1525 1525 1526 1527 1527 1528 1529 1530 1532 1533 1534 1535 1536 1537 1537 1538 1538 1539 1539 1539 1539 1539 1540 1540 1540 1540
1510 1511 1513 1514 1515 1516 1517 1518 1519 1519 1520 1520 1520 1521 1521 1521 1521 1522 1522 1523 1523 1523 1523 1523 1524 1524 1525 1525 1526 1526 1527 1528 1529 1530 1531 1533 1534 1535 1536 1536 1537 1538 1538 1539 1539 1539 1539 1539 1540 1540 1540 1540
1509 1510 1512 1513 1514 1515 1516 1517 1517 1518 1519 1519 1520 1520 1520 1521 1521 1521 1521 1522 1522 1523 1523 1523 1523 1524 1524 1525 1525 1526 1527 1528 1529 1530 1531 1533 1534 1535 1535 1536 1537 1538 1538 1539 1539 1539 1539 1539 1540 1540 1540 1540
1508 1509 1511 1512 1513 1514 1515 1516 1516 1517 1518 1518 1519 1519 1519 1520 1520 1520 1521 1521 1521 1522 1522 1523 1523 1523 1524 1524 1525 1526 1526 1527 1528 1530 1531 1532 1533 1534 1535 1536 1537 1537 1538 1538 1539 1539 1539 1539 1539 1539 1539 1540
1506 1508 1509 1511 1512 1513 1514 1514 1515 1516 1517 1517 1518 1518 1518 1519 1519 1519 1520 1520 1520 1521 1521 1522 1522 1523 1523 1524 1524 1525 1526 1527 1528 1529 1530 1532 1533 1534 1535 1536 1536 1537 1537 1538 1538 1539 1539 1539 1539 1539 1539 1539
1505 1506 1508 1509 1511 1512 1512 1513 1514 1515 1516 1516 1517 1517 1517 1518 1518 1519 1519 1520 1520 1520 1520 1521 1521 1522 1523 1523 1524 1525 1526 1527 1528 1529 1530 1531 1532 1533 1534 1535 1536 1536 1537 1538 1538 1538 1538 1539 1539 1539 1539 1539
1503 1505 1506 1508 1509 1510 1511 1512 1512 1513 1514 1515 1515 1516 1516 1517 1517 1518 1518 1519 1519 1519 1519 1520 1521 1521 1522 1523 1524 1524 1525 1526 1527 1528 1529 1531 1532 1532 1534 1534 1535 1536 1536 1537 1538 1538 1538 1538 1538 1538 1538 1539
1502 1503 1504 1506 1507 1508 1509 1510 1511 1512 1513 1513 1514 1514 1515 1515 1516 1517 1517 1518 1519 1519 1519 1519 1520 1521 1522 1522 1523 1524 1525 1526 1527 1528 1529 1530 1531 1532 1533 1534 1534 1535 1536 1536 1537 1537 1538 1538 1538 1538 1538 1538
1500 1501 1502 1504 1505 1507 1507 1508 1509 1510 1511 1512 1512 1513 1514 1514 1515 1515 1516 1517 1518 1518 1518 1519 1519 1520 1521 1522 1523 1524 1524 1525 1526 1527 1528 1529 1530 1531 1532 1533 1534 1534 1535 1536 1536 1537 1537 1537 1537 1537 1538 1538
1497 1499 1500 1502 1503 1504 1505 1506 1507 1508 1509 1510 1511 1512 1512 1513 1514 1514 1515 1516 1517 1517 1518 1518 1518 1519 1520 1521 1522 1523 1524 1525 1526 1526 1527 1528 1529 1530 1531 1532 1533 1533 1534 1535 1535 1536 1536 1536 1537 1537 1537 1537
1495 1496 1498 1499 1501 1501 1502 1503 1504 1506 1506 1508 1509 1510 1511 1511 1512 1513 1514 1515 1516 1516 1517 1517 1517 1518 1519 1519 1520 1521 1522 1523 1524 1525 1526 1527 1528 1529 1530 1531 1532 1533 1533 1534 1534 1535 1535 1536 1536 1536 1537 1537
1492 1494 1495 1497 1498 1499 1499 1501 1502 1503 1505 1506 1507 1508 1509 1510 1511 1512 1512 1513 1514 1515 1516 1516 1517 1517 1518 1518 1519 1520 1521 1522 1523 1524 1525 1526 1527 1528 1529 1530 1530 1531 1532 1533 1533 1534 1534 1535 1535 1535 1536 1536
1490 1491 1493 1494 1495 1496 1497 1498 1500 1501 1503 1504 1505 1506 1507 1509 1509 1510 1511 1512 1513 1514 1514 1515 1516 1516 1517 1517 1518 1519 1520 1522 1523 1523 1524 1525 1526 1527 1528 1528 1529 1530 1531 1531 1532 1533 1533 1534 1534 1534 1535 1535
1488 1489 1490 1491 1493 1494 1495 1497 1498 1500 1502 1503 1504 1505 1506 1507 1508 1508 1509 1510 1511 1512 1513 1514 1514 1515 1516 1516 1517 1518 1519 1520 1521 1522 1523 1523 1524 1525 1526 1527 1528 1528 1529 1530 1531 1532 1532 1533 1533 1533 1533 1533
1485 1487 1488 1489 1490 1492 1494 1495 1497 1498 1500 1500 1501 1502 1504 1505 1506 1506 1507 1508 1509 1510 1511 1512 1513 1514 1515 1515 1516 1516 1517 1518 1519 1520 1521 1522 1523 1524 1524 1525 1526 1527 1528 1529 1529 1530 1531 1531 1531 1531 1531 1532
1483 1484 1486 1487 1488 1490 1492 1493 1494 1495 1496 1497 1498 1499 1500 1501 1503 1504 1505 1506 1507 1508 1509 1510 1511 1512 1513 1514 1515 1515 1515 1516 1517 1518 1519 1520 1521 1522 1523 1523 1524 1525 1526 1527 1528 1529 1529 1530 1530 1530 1530 1530
1480 1481 1483 1484 1485 1487 1489 1490 1490 1490 1491 1492 1494 1495 1497 1499 1501 1502 1503 1504 1505 1505 1507 1508 1509 1510 1511 1512 1513 1514 1514 1515 1516 1517 1518 1519 1520 1520 1521 1522 1523 1523 1524 1525 1526 1526 1527 1527 1528 1528 1528 1528
1477 1478 1480 1481 1482 1483 1485 1485 1486 1486 1487 1489 1492 1494 1495 1497 1498 1499 1500 1501 1502 1503 1504 1505 1506 1508 1509 1510 1511 1512 1513 1513 1514 1515 1516 1517 1518 1519 1520 1521 1521 1522 1522 1523 1524 1524 1525 1525 1526 1526 1526 1527
1474 1475 1476 1478 1479 1481 1482 1482 1483 1484 1486 1488 1491 1492 1493 1494 1495 1496 1498 1499 1500 1501 1502 1503 1504 1505 1506 1508 1509 1510 1511 1511 1512 1513 1515 1516 1517 1518 1518 1519 1519 1520 1521 1521 1522 1522 1523 1523 1524 1524 1525 1525